Time,TemperatureF,DewpointF,PressureIn,WindDirection,WindDirectionDegrees,WindSpeedMPH,WindSpeedGustMPH,Humidity,HourlyPrecipIn,Conditions,Clouds,dailyrainin,SoftwareType,DateUTC
2016-02-10 00:00:00,17.6,13.0,29.89,WNW,291,9.0,13.0,83,0.00,,,0.00,weatherlink.com 1.10,2016-02-10 05:00:00,
2016-02-10 00:15:00,17.3,13.0,29.90,WNW,294,5.0,13.0,82,0.00,,,0.00,weatherlink.com 1.10,2016-02-10 05:15:00,
2016-02-10 00:30:00,16.8,12.0,29.90,WNW,298,6.0,14.0,82,0.00,,,0.00,weatherlink.com 1.10,2016-02-10 05:30:00,
2016-02-10 00:45:00,16.2,11.0,29.90,West,281,7.0,13.0,81,0.00,,,0.00,weatherlink.com 1.10,2016-02-10 05:45:00,
2016-02-10 01:00:00,15.6,11.0,29.90,West,281,3.0,11.0,81,0.00,,,0.00,weatherlink.com 1.10,2016-02-10 06:00:00,
2016-02-10 01:15:00,15.1,10.0,29.90,WNW,287,3.0,10.0,81,0.00,,,0.00,weatherlink.com 1.10,2016-02-10 06:15:00,
2016-02-10 01:30:00,14.7,10.0,29.90,WNW,300,1.0,11.0,81,0.00,,,0.00,weatherlink.com 1.10,2016-02-10 06:30:00,
2016-02-10 01:45:00,14.5,10.0,29.90,NW,305,2.0,12.0,81,0.00,,,0.00,weatherlink.com 1.10,2016-02-10 06:45:00,
2016-02-10 02:00:00,14.4,9.0,29.90,West,265,4.0,10.0,79,0.00,,,0.00,weatherlink.com 1.10,2016-02-10 07:00:00,
2016-02-10 02:15:00,14.1,9.0,29.90,SW,232,3.0,10.0,79,0.00,,,0.00,weatherlink.com 1.10,2016-02-10 07:15:00,
2016-02-10 02:30:00,14.2,9.0,29.90,WNW,290,5.0,10.0,79,0.00,,,0.00,weatherlink.com 1.10,2016-02-10 07:30:00,
2016-02-10 02:45:00,14.2,9.0,29.90,West,281,3.0,8.0,80,0.00,,,0.00,weatherlink.com 1.10,2016-02-10 07:45:00,
2016-02-10 03:01:00,14.1,10.0,29.90,WNW,293,3.0,12.0,82,0.00,,,0.00,weatherlink.com 1.10,2016-02-10 08:01:00,
2016-02-10 03:31:00,13.7,10.0,29.90,West,272,5.0,10.0,85,0.00,,,0.00,weatherlink.com 1.10,2016-02-10 08:31:00,
2016-02-10 03:46:00,13.6,10.0,29.90,WSW,257,5.0,12.0,86,0.00,,,0.00,weatherlink.com 1.10,2016-02-10 08:46:00,
2016-02-10 04:16:00,13.5,10.0,29.91,NW,315,2.0,9.0,86,0.00,,,0.00,weatherlink.com 1.10,2016-02-10 09:16:00,
2016-02-10 04:31:00,13.4,10.0,29.91,WNW,290,6.0,11.0,87,0.00,,,0.00,weatherlink.com 1.10,2016-02-10 09:31:00,
2016-02-10 04:46:00,13.5,10.0,29.91,WNW,284,2.0,6.0,87,0.00,,,0.00,weatherlink.com 1.10,2016-02-10 09:46:00,
2016-02-10 05:16:00,13.6,11.0,29.91,West,273,5.0,9.0,88,0.00,,,0.00,weatherlink.com 1.10,2016-02-10 10:16:00,
2016-02-10 05:31:00,13.7,11.0,29.92,WNW,286,1.0,7.0,89,0.00,,,0.00,weatherlink.com 1.10,2016-02-10 10:31:00,
2016-02-10 05:46:00,13.8,11.0,29.92,West,267,2.0,7.0,89,0.00,,,0.00,weatherlink.com 1.10,2016-02-10 10:46:00,
2016-02-10 06:01:00,13.9,11.0,29.93,WNW,296,4.0,9.0,89,0.00,,,0.00,weatherlink.com 1.10,2016-02-10 11:01:00,
2016-02-10 06:16:00,14.1,12.0,29.92,WNW,291,3.0,10.0,89,0.00,,,0.00,weatherlink.com 1.10,2016-02-10 11:16:00,
2016-02-10 06:46:00,14.3,12.0,29.93,WNW,291,5.0,10.0,89,0.00,,,0.00,weatherlink.com 1.10,2016-02-10 11:46:00,
2016-02-10 07:01:00,14.5,12.0,29.94,NW,306,8.0,8.0,89,0.00,,,0.00,weatherlink.com 1.10,2016-02-10 12:01:00,
2016-02-10 07:16:00,14.6,12.0,29.94,West,278,5.0,8.0,89,0.00,,,0.00,weatherlink.com 1.10,2016-02-10 12:16:00,
2016-02-10 07:31:00,14.6,12.0,29.93,West,269,4.0,10.0,89,0.00,,,0.00,weatherlink.com 1.10,2016-02-10 12:31:00,
2016-02-10 07:46:00,14.6,12.0,29.94,WNW,294,9.0,17.0,89,0.00,,,0.00,weatherlink.com 1.10,2016-02-10 12:46:00,
2016-02-10 08:01:00,14.6,12.0,29.94,WNW,283,5.0,13.0,88,0.00,,,0.00,weatherlink.com 1.10,2016-02-10 13:01:00,
2016-02-10 08:16:00,14.6,11.0,29.94,WNW,286,2.0,11.0,87,0.00,,,0.00,weatherlink.com 1.10,2016-02-10 13:16:00,
2016-02-10 08:31:00,14.6,12.0,29.95,WNW,291,5.0,15.0,88,0.00,,,0.00,weatherlink.com 1.10,2016-02-10 13:31:00,
2016-02-10 08:46:00,14.8,12.0,29.95,West,278,7.0,10.0,88,0.00,,,0.00,weatherlink.com 1.10,2016-02-10 13:46:00,
2016-02-10 09:01:00,14.8,12.0,29.96,NW,319,3.0,12.0,88,0.00,,,0.00,weatherlink.com 1.10,2016-02-10 14:01:00,
2016-02-10 09:16:00,14.9,12.0,29.96,WNW,285,12.0,13.0,88,0.00,,,0.00,weatherlink.com 1.10,2016-02-10 14:16:00,
2016-02-10 09:31:00,14.8,12.0,29.97,NW,317,1.0,14.0,89,0.00,,,0.00,weatherlink.com 1.10,2016-02-10 14:31:00,
2016-02-10 09:46:00,15.0,12.0,29.97,NNW,344,8.0,12.0,89,0.00,,,0.00,weatherlink.com 1.10,2016-02-10 14:46:00,
2016-02-10 10:01:00,15.1,12.0,29.97,NW,321,6.0,19.0,88,0.00,,,0.00,weatherlink.com 1.10,2016-02-10 15:01:00,
2016-02-10 10:16:00,14.9,13.0,29.98,NW,317,6.0,12.0,90,0.00,,,0.00,weatherlink.com 1.10,2016-02-10 15:16:00,
2016-02-10 10:31:00,15.4,13.0,29.98,WNW,299,6.0,14.0,89,0.00,,,0.00,weatherlink.com 1.10,2016-02-10 15:31:00,
2016-02-10 10:46:00,15.5,12.0,29.99,WNW,296,9.0,17.0,86,0.00,,,0.00,weatherlink.com 1.10,2016-02-10 15:46:00,
2016-02-10 11:01:00,15.6,12.0,29.99,WNW,299,6.0,15.0,84,0.00,,,0.00,weatherlink.com 1.10,2016-02-10 16:01:00,
2016-02-10 11:31:00,16.4,12.0,30.00,WNW,287,1.0,15.0,83,0.00,,,0.00,weatherlink.com 1.10,2016-02-10 16:31:00,